STARLINK-1724, 46375

Orbit data source: Space-Track

STARLINK-1724, 46375 is a payload satellite owned by SpaceX/Seattle (US) in LEO that was launched on Thu, 03 Sep 2020 UTC via an FALCON 9 launch vehicle from the Air Force Eastern Test Range (AFETR). Payload-class satellites include a variety of spacecraft equipped with specific instruments for various scientific and technological missions. These include communications satellites like Starlink; space stations such as the ISS; scientific satellites like the Hubble; Earth observation satellites from companies like Planet Labs, Umbra, and HawkEye 360; GPS; miniature CubeSats for education and research; and military/defense satellites.

Loading next visibility...
Identifier
46375, 2020-062BC
Orbit
LEO
Country
Flag of USUS
Related business
Manufacturer
SpaceX/Seattle
Mission
Partially operational Commercial Communications
Bus & Motor
STARLINK, Unknown motor
Mass
260 kg wet, ~248 kg dry
Launch date (UTC)
2020-09-03 (6 years ago)
Launch vehicle
FALCON 9
Launch site
Air Force Eastern Test Range (AFETR)
Object type
Payload
Rocket body
Debris
Shape & HBR
Box + 1 Pan, 10.1 m
Radar Cross Section
13.562 m², Large (>1 m²)

Expand to show TLE details & history
Last TLE update: 8 hours ago

TLE from 8 hours ago
0 STARLINK-1724
1 46375U 20062BC  26165.74633971  .00081168  00000-0  61377-3 0  9996
2 46375  53.0196 171.9985 0005351 351.3572   8.7352 15.71729978320748
Epoch: 2026-06-14T17:54Z
TLE epoch observation values (Epoch: 2026-06-14T17:54:43.750Z)
Latitude
-0.00004°
Longitude
0.27353°
Altitude
351.293 km
Speed
7.702 km/s
True Right ascension
11h 27m 59s
True Declination
0° 00' 00"
Sunlit
Object was in daylight at epoch
Visualization orbit readout
Latitude
Unknown
Longitude
Unknown
Altitude
Unknown
Speed
Unknown
Apparent Right ascension
Unknown
Apparent Declination
Unknown
Sunlit
N/A
Visualization observer readout
Local Sidereal Time
12:30:45
Azimuth
Unknown
Elevation
Unknown
Doppler factor
Unknown
Orbital elements
Apogee altitude
357.839 km
Perigee altitude
350.634 km
Semi-major axis
6,732.374 km
Eccentricity
0.00054
Inclination
53.0196°
RAAN
171.9985°
Arg. of periapsis
351.3572°
True anomaly
8.74452°
Mean anomaly
8.7352°
Eccentric anomaly
8.73986°
Mean motion
3.92908 °/min
Orbital period
91.62 mins
BSTAR
0.00061377
Loading maneuver chart data...
Computing Atmospheric mass density...

Documentation

Showing up to 5 results
|